Theta_e
333 325 322 321 309 308 302 304 307 308 309 313 316 314 310 315 314 313 333 337 338 340 343 345 347 349 349 348 347 346 344 341 340 337 338 337 337 338 337 338 338 337 336 336 335 336 334 334 335
330 325 321 318 305 300 302 307 306 311 315 317 316 316 312 314 326 327 330 337 339 341 342 343 346 348 348 348 346 345 344 340 338 336 336 336 335 337 340 336 340 337 335 336 336 335 334 334 334
328 324 315 311 307 302 302 308 307 315 317 316 315 318 316 318 327 328 335 337 338 338 342 342 345 348 348 347 346 345 344 342 338 336 337 336 335 337 338 337 339 337 334 336 335 333 333 333 333
321 320 316 306 303 308 308 310 310 313 315 317 317 314 321 327 327 333 337 336 336 340 343 342 346 347 347 346 346 345 343 340 339 336 336 337 333 336 338 338 337 335 336 334 332 333 332 331 331
321 317 306 305 306 310 311 312 312 310 311 314 316 312 317 327 334 336 335 335 334 337 341 342 344 345 346 346 346 345 344 342 339 338 336 335 334 335 336 337 336 337 335 332 333 332 332 331 330
312 313 303 301 305 310 311 313 312 311 312 315 311 312 320 330 332 334 335 334 337 337 340 341 338 341 344 345 345 345 344 343 341 340 336 335 335 336 336 336 335 336 337 336 334 332 331 330 329
311 308 303 303 304 306 309 311 307 310 312 311 316 308 320 326 333 334 336 335 335 335 339 340 340 339 337 340 341 342 342 341 340 339 338 337 336 337 337 336 336 333 332 334 334 333 331 329 328
312 308 302 303 302 303 307 308 311 309 311 319 318 309 312 325 333 334 336 335 334 335 336 338 338 338 337 337 335 336 338 338 338 337 334 332 332 333 332 331 331 332 333 333 332 331 332 330 327
316 302 298 302 303 305 307 305 311 312 311 316 319 316 322 331 333 333 332 332 333 334 333 333 335 335 335 335 332 330 333 334 333 331 328 326 327 327 326 327 331 334 334 332 331 330 332 330 327
309 302 302 306 305 305 307 305 306 306 308 310 314 321 328 329 328 328 328 328 328 329 329 330 330 330 331 333 332 334 335 334 332 330 327 327 326 326 327 325 328 331 331 332 329 329 330 325 320
310 303 307 308 309 309 307 307 307 306 304 308 309 317 324 326 325 326 328 328 327 330 328 328 328 329 328 327 331 334 334 334 332 330 328 327 326 324 325 323 323 323 322 323 326 324 321 321 321
306 309 310 310 311 309 307 310 307 306 305 311 311 315 323 324 324 324 325 327 329 329 330 328 327 327 327 327 329 334 336 334 332 332 331 326 323 322 322 323 322 321 321 320 320 320 321 321 322
307 308 311 311 310 309 311 308 307 307 311 311 311 313 318 323 324 326 328 328 329 327 329 331 328 327 328 326 326 329 332 333 332 332 330 327 323 321 321 321 321 321 320 319 320 320 321 320 321
309 308 309 309 308 308 307 306 306 308 311 307 308 309 313 321 323 325 326 326 327 328 328 329 330 329 328 326 326 326 327 331 330 330 328 328 326 322 321 320 321 320 320 319 320 320 320 320 320
309 303 306 306 307 306 307 302 302 308 309 309 308 307 310 315 321 323 326 326 328 328 329 329 329 330 329 327 328 327 327 327 327 327 328 328 327 324 320 319 319 319 319 319 319 320 320 319 320
303 303 297 305 306 306 304 295 304 306 306 307 309 310 308 310 314 320 324 327 328 330 329 331 331 330 330 329 328 328 328 327 327 326 327 327 328 326 320 319 318 319 319 318 318 318 318 318 318
300 293 295 299 306 304 302 297 304 306 305 305 306 309 310 310 312 317 321 325 327 329 329 330 330 329 330 330 330 331 329 328 327 327 326 326 327 326 320 320 319 319 318 317 318 318 318 317 317
293 294 296 295 301 301 299 299 303 305 304 303 304 306 309 310 311 314 319 322 326 327 329 329 330 331 330 331 331 330 330 330 330 328 327 326 327 326 322 321 321 320 317 317 317 317 319 318 317
298 295 294 297 302 298 297 298 300 303 302 301 302 304 306 308 313 313 314 319 322 325 327 329 329 330 331 329 328 328 327 328 329 329 329 327 326 326 324 323 322 322 320 318 318 318 318 317 318
298 295 294 298 301 297 296 296 300 301 301 302 302 303 305 306 307 309 312 313 320 322 325 327 329 330 330 331 330 330 329 329 329 330 329 329 327 326 325 324 323 322 322 321 320 318 317 317 318
296 295 294 294 298 296 294 293 296 300 302 303 304 305 306 307 307 306 306 309 315 320 323 325 326 328 330 331 331 331 330 329 327 327 328 329 329 328 326 325 324 323 323 321 321 319 318 315 316
292 298 297 295 293 286 294 283 292 296 298 300 299 301 302 304 306 307 307 307 307 315 320 324 326 327 328 329 329 329 327 325 327 327 328 329 329 328 328 326 325 324 324 322 322 322 320 318 315
293 298 296 296 292 289 290 285 289 293 294 296 299 301 301 304 305 305 306 309 309 311 311 317 321 323 326 328 329 329 328 328 328 328 327 327 328 328 328 327 325 324 324 323 322 322 321 320 318
300 297 296 294 291 284 289 287 287 291 294 297 299 299 300 303 304 305 308 309 308 308 311 312 313 316 320 324 326 327 328 327 326 326 326 327 328 328 328 328 326 325 324 323 323 322 321 321 320
297 292 284 282 282 282 290 287 289 294 297 296 297 298 299 301 302 304 302 303 304 304 306 308 310 312 314 318 322 324 327 328 327 326 325 325 325 326 327 328 327 325 325 324 324 323 322 321 320
293 292 285 279 279 280 286 282 288 295 297 297 298 298 300 301 300 300 300 302 302 304 303 304 306 308 311 312 317 322 324 327 328 328 327 326 325 326 327 327 327 326 325 325 324 323 323 322 321
291 288 295 286 281 279 283 287 292 295 294 295 296 298 297 298 300 299 300 300 301 302 303 302 302 305 308 310 312 315 322 323 325 327 328 327 326 327 326 325 325 325 325 324 324 324 323 323 322
293 295 285 286 278 275 280 281 284 290 293 295 295 295 297 297 297 299 299 300 301 302 302 302 302 302 304 307 310 313 316 320 323 325 325 326 326 326 324 324 324 324 324 324 324 324 324 323 322
291 290 290 289 287 279 276 280 290 292 294 293 295 297 295 295 296 298 299 300 300 301 301 301 301 301 302 304 307 310 313 317 319 321 323 324 324 324 324 324 324 323 323 323 322 323 323 321 321
294 291 291 284 281 282 282 281 295 294 295 296 295 295 295 296 297 297 297 298 299 301 301 301 301 301 302 303 308 308 310 314 317 318 319 320 322 323 323 324 324 324 323 323 322 322 321 320 319
Wind_Speed
17 14 5 3 2 2 5 6 5 4 3 3 7 6 4 10 5 4 6 4 9 13 10 9 10 12 13 13 13 13 12 12 11 10 10 10 11 10 12 13 10 12 14 14 14 14 14 14 12
10 13 2 3 1 5 5 7 11 10 6 5 0 4 2 5 8 4 6 5 8 13 10 9 10 12 13 13 13 13 12 13 11 10 10 10 11 9 12 12 12 14 11 13 13 13 12 11 10
14 9 2 2 3 3 3 8 8 7 5 4 1 0 4 4 9 8 7 8 8 9 11 10 10 12 13 13 12 13 12 12 12 11 10 11 9 9 11 10 13 11 11 13 11 11 11 10 8
5 2 3 2 8 4 3 6 6 7 5 2 5 2 5 6 5 5 9 9 7 12 11 11 10 11 12 12 13 13 13 13 12 11 10 12 10 8 10 11 12 10 12 11 10 10 10 9 8
4 4 4 5 7 6 4 4 6 4 1 8 3 1 4 4 8 9 7 8 8 10 11 9 9 9 10 12 13 13 13 13 13 12 10 11 10 7 10 11 8 9 12 9 10 9 8 7 7
3 1 4 5 7 3 5 10 7 6 5 7 1 5 5 9 7 7 5 7 9 11 9 11 7 7 8 10 12 12 11 12 12 12 12 11 10 9 9 10 8 8 9 10 10 8 7 6 6
4 4 6 11 7 8 4 5 4 6 7 4 5 4 4 6 9 4 6 4 6 9 9 9 7 6 5 8 10 10 10 11 12 12 11 10 9 10 9 9 8 9 8 7 7 7 6 5 4
4 3 6 8 5 6 5 2 5 3 4 1 3 2 4 7 11 4 8 6 4 7 10 10 9 8 6 5 7 7 11 10 10 10 10 9 8 8 7 7 9 9 8 7 7 5 6 5 3
3 3 4 8 9 6 6 5 5 2 4 0 6 3 5 13 10 7 6 5 6 6 5 6 10 9 8 7 7 6 11 11 10 9 8 6 4 6 7 5 9 9 8 7 5 5 5 6 3
3 4 8 8 4 7 9 4 10 2 4 5 5 9 11 9 8 9 8 9 6 7 6 5 5 7 7 7 7 6 6 5 5 6 6 5 5 5 6 7 8 8 7 6 6 5 5 6 4
3 8 11 12 7 8 6 7 4 7 5 5 2 8 10 10 7 7 10 10 6 8 6 6 5 6 6 4 5 4 4 4 4 7 7 6 4 4 4 3 3 3 4 3 4 4 4 6 5
12 10 9 10 6 3 7 7 5 7 9 4 3 4 10 11 9 8 10 10 11 7 10 7 7 6 7 4 4 5 6 5 4 5 8 4 2 4 4 4 5 5 4 6 5 4 6 6 2
14 8 15 9 6 1 8 8 8 9 9 9 4 1 5 9 10 10 9 9 10 9 8 10 7 7 6 6 5 5 6 4 6 5 6 4 4 5 5 4 5 5 5 5 5 4 4 3 3
5 5 11 11 6 5 9 9 8 8 7 6 6 7 8 9 10 9 11 9 10 8 8 8 11 7 7 6 6 4 5 7 6 6 6 7 5 5 5 5 5 5 5 5 5 5 4 4 5
2 8 10 8 7 8 6 9 10 13 12 10 8 9 9 10 10 11 11 10 11 9 9 8 9 9 7 8 7 5 4 5 5 5 7 8 6 6 6 5 5 4 5 6 4 4 4 4 4
4 8 10 9 12 7 7 12 11 12 12 10 12 11 9 11 9 9 9 10 12 11 13 12 7 9 9 7 7 6 5 5 5 5 5 8 8 7 6 5 5 5 4 4 3 4 3 4 4
8 7 12 12 14 5 9 6 8 7 3 9 9 9 8 9 11 10 9 9 11 13 13 15 11 10 10 10 7 8 8 6 5 5 5 7 8 8 6 5 5 6 5 5 5 5 5 4 5
9 13 13 14 2 3 9 12 9 11 7 7 8 9 9 8 6 8 11 10 9 11 13 11 12 13 11 9 8 5 6 8 8 6 6 8 8 9 8 5 6 6 5 5 4 6 5 4 5
15 15 11 10 3 2 6 11 10 13 10 9 8 9 9 9 7 7 7 11 10 9 11 12 14 15 11 10 9 9 10 8 8 7 10 10 9 11 10 7 5 6 6 6 6 5 6 4 4
18 17 19 11 7 3 7 15 13 15 14 11 11 12 11 10 11 10 9 9 13 13 11 13 15 15 14 11 11 10 9 8 9 8 9 11 11 11 11 11 9 8 6 8 8 7 4 4 5
18 18 14 13 7 2 5 16 14 15 22 22 21 18 13 13 13 9 8 9 10 13 13 12 12 12 12 14 9 7 7 7 7 9 11 13 14 13 13 13 11 10 9 9 9 8 10 6 4
18 10 9 10 3 7 3 13 8 8 15 14 6 7 9 9 9 8 8 8 6 9 10 14 13 13 12 11 11 14 12 12 12 11 11 11 15 15 14 14 14 13 10 11 10 9 9 7 8
16 4 8 12 11 4 12 6 8 3 10 10 11 9 8 8 5 4 6 7 6 6 1 7 10 11 13 13 14 13 14 11 9 10 12 14 12 16 16 15 15 14 11 13 13 11 12 10 9
2 7 7 5 4 8 24 9 22 12 12 13 8 5 1 8 8 9 7 6 5 6 6 6 6 7 8 11 14 16 17 15 11 12 10 10 10 11 16 16 15 15 14 14 13 14 14 14 12
6 9 5 7 7 12 10 11 19 11 10 4 5 6 5 7 6 5 6 6 6 6 6 7 6 9 8 9 13 15 17 16 16 14 10 11 10 9 14 16 15 13 16 15 14 14 15 15 14
12 13 6 5 6 7 8 11 8 2 3 2 1 4 6 8 8 6 6 6 6 7 6 6 8 9 7 8 10 13 14 11 12 14 11 9 11 11 12 12 15 16 15 14 13 11 12 14 14
2 10 5 1 1 2 6 6 6 8 6 4 2 7 9 8 6 6 7 7 8 7 7 6 7 8 8 8 7 8 12 14 13 15 12 11 11 10 10 11 13 16 15 15 15 12 14 14 14
6 9 5 3 5 3 4 5 5 7 9 8 9 9 6 4 1 3 3 6 6 8 8 6 6 8 8 8 7 7 7 10 12 12 13 13 11 11 8 10 13 13 14 14 14 13 14 14 12
6 5 8 6 3 1 1 4 3 8 15 10 8 5 5 7 6 6 6 6 7 8 8 8 6 6 7 7 8 8 7 7 7 10 11 12 11 8 9 10 10 12 12 13 13 15 14 16 15
6 4 8 3 5 2 3 6 6 10 9 9 7 6 5 6 5 4 7 8 8 10 10 9 8 7 6 6 7 8 7 7 7 7 7 6 8 8 8 8 11 12 12 11 13 14 13 15 14
Wind_Direction
313 314 297 314 324 183 273 62 49 83 95 22 15 11 351 48 14 89 113 80 128 112 124 133 129 125 121 121 117 109 107 107 105 102 103 102 108 103 100 95 95 104 98 94 94 93 87 85 80
306 305 277 268 250 305 45 16 49 46 67 60 112 315 298 95 79 115 119 203 135 125 142 130 128 129 126 125 123 117 115 110 107 104 100 104 108 115 102 94 97 101 98 99 97 93 89 85 77
291 260 288 336 254 283 37 62 54 79 38 338 80 302 356 73 84 157 114 164 141 131 114 122 129 135 133 133 132 126 123 115 111 115 113 106 108 105 109 98 104 104 105 103 100 96 86 79 71
311 252 242 240 274 300 13 42 61 140 157 139 328 133 104 41 115 110 146 144 138 117 117 127 132 141 142 141 142 136 129 127 124 120 113 110 116 109 105 98 98 110 108 108 104 95 91 80 65
297 274 266 247 261 266 107 244 118 330 255 142 176 75 88 86 98 120 157 153 135 111 121 128 137 145 144 147 150 149 141 139 132 124 129 116 120 116 106 104 104 115 118 116 110 105 96 79 62
305 253 286 269 289 33 12 54 38 303 278 100 180 250 86 114 134 137 166 166 141 120 138 132 146 156 151 145 151 154 149 143 138 134 131 132 135 130 125 122 121 119 123 114 128 122 108 90 67
285 291 286 307 314 330 319 45 31 345 312 164 94 314 113 130 110 130 155 167 162 130 125 140 153 163 157 144 150 154 155 148 145 141 141 137 150 144 148 144 156 151 143 125 129 141 136 122 91
299 290 281 289 278 287 68 24 91 291 2 83 78 320 99 145 116 181 165 177 213 135 149 160 160 156 170 156 150 158 157 153 145 138 139 145 140 137 144 157 168 166 145 152 154 153 169 157 125
287 268 255 265 303 354 118 360 113 108 289 31 134 51 86 112 125 166 173 192 197 146 182 173 160 171 175 168 163 161 161 153 141 138 144 153 159 162 162 178 158 149 155 168 163 169 181 154 160
239 256 254 270 19 355 344 22 320 304 239 236 182 114 118 125 145 170 182 192 190 160 190 189 165 172 175 176 144 166 161 157 160 157 164 197 180 184 167 146 153 160 173 174 183 194 192 191 196
244 244 274 291 39 35 330 312 293 322 271 301 15 162 148 140 164 189 196 205 219 183 176 189 188 180 172 165 151 156 157 177 178 183 175 224 161 150 140 142 152 158 181 192 197 208 218 224 229
263 270 282 290 59 33 293 324 307 276 263 313 32 52 162 152 177 198 204 205 215 247 198 181 192 190 179 167 168 169 174 182 172 177 191 201 163 164 183 163 182 184 182 214 197 198 220 218 235
258 252 281 291 320 294 280 281 265 284 295 292 254 51 220 169 184 194 202 200 212 234 200 192 200 187 187 183 191 170 175 181 178 182 189 185 183 180 196 192 181 194 182 211 201 218 202 213 224
273 301 264 266 249 266 268 264 286 261 277 250 252 219 225 189 189 188 199 188 198 213 249 186 179 210 184 193 189 212 178 182 184 196 190 190 183 189 197 207 199 187 196 202 196 207 193 200 208
282 291 275 258 245 240 299 276 248 245 249 256 246 217 238 200 191 200 197 189 189 211 224 249 184 182 210 190 198 194 211 188 185 193 186 182 197 199 189 198 206 203 198 200 213 216 194 203 211
260 245 264 246 244 210 134 263 297 285 216 238 253 246 221 203 196 201 204 186 187 200 200 222 199 181 194 222 194 191 199 202 195 192 190 187 188 202 200 193 196 202 198 189 202 201 213 224 221
226 247 239 246 242 210 174 266 297 334 259 234 266 278 245 232 195 186 194 195 191 198 207 200 193 189 193 212 234 198 191 198 197 192 197 199 190 197 204 194 199 192 191 191 194 207 190 204 223
229 228 235 256 194 193 274 260 261 270 251 259 267 277 282 283 274 194 182 193 198 198 211 198 193 195 196 195 217 231 206 202 200 199 199 198 197 199 208 211 201 191 183 195 194 202 215 196 208
265 271 263 266 278 212 236 266 272 281 275 267 257 238 248 264 264 265 208 191 194 198 206 209 192 197 193 196 199 216 213 205 202 208 204 200 198 198 204 213 207 196 190 193 202 197 209 234 192
247 256 263 278 121 128 282 274 276 282 281 265 260 257 253 252 251 244 234 202 186 199 209 221 219 203 200 204 204 206 214 215 209 202 207 208 201 199 203 206 210 203 196 199 202 196 197 202 191
244 241 253 269 291 244 296 274 265 251 247 253 246 246 248 253 256 255 252 232 187 193 203 215 230 227 217 211 208 207 213 217 210 212 213 212 208 203 202 203 206 207 202 206 205 200 200 200 211
242 230 254 270 317 264 215 287 225 298 292 286 279 236 225 249 254 245 241 261 222 212 209 208 212 216 220 217 210 207 210 212 215 218 220 211 210 210 209 208 205 205 204 208 205 201 204 188 203
254 224 227 247 254 269 253 273 260 288 272 269 266 230 243 251 251 52 36 49 16 358 239 217 222 218 218 216 222 216 221 225 219 218 222 216 208 211 212 208 209 211 208 211 205 200 201 202 207
268 255 262 255 227 236 240 197 277 253 251 251 249 174 155 68 55 45 13 4 343 341 306 270 248 244 224 217 225 225 222 224 223 225 222 222 212 207 213 213 210 212 212 211 207 204 204 207 209
234 180 225 205 187 234 170 193 236 297 288 290 273 280 45 74 71 44 36 6 348 349 334 314 285 252 240 234 231 231 232 225 228 227 224 222 221 218 217 208 211 211 217 216 211 206 209 207 208
210 224 212 226 189 223 138 225 229 95 235 191 3 43 66 61 69 47 360 331 336 339 337 322 308 292 267 239 237 228 233 231 231 230 227 224 227 225 221 208 212 214 212 217 216 216 215 215 215
183 207 261 159 309 86 198 243 284 248 266 33 359 63 76 66 37 2 353 340 336 325 313 304 304 295 294 281 261 243 227 229 232 236 232 227 229 225 218 204 205 214 215 214 213 216 222 222 218
178 151 203 246 138 205 230 222 228 162 130 89 83 95 101 110 160 317 326 300 293 295 294 286 287 285 284 287 284 271 245 231 228 231 232 231 230 225 213 201 206 208 212 213 214 218 223 225 224
184 183 206 181 211 294 82 250 95 84 125 122 119 117 51 29 38 9 359 359 358 348 343 316 296 297 300 297 291 284 275 261 240 229 233 232 233 225 216 207 200 205 209 213 215 220 225 225 224
285 222 196 188 225 277 103 269 86 117 119 123 110 81 23 32 32 10 23 10 7 354 345 334 328 308 289 291 300 288 287 276 260 252 252 240 235 236 232 216 212 211 207 212 216 222 224 232 230